Date,TemperatureHighF,TemperatureAvgF,TemperatureLowF,DewpointHighF,DewpointAvgF,DewpointLowF,HumidityHigh,HumidityAvg,HumidityLow,PressureMaxIn,PressureMinIn,WindSpeedMaxMPH,WindSpeedAvgMPH,GustSpeedMaxMPH,PrecipitationSumIn
2013-8-1,79,66,58,63,51,39,96,61,33,30.03,29.91,17,4,27,0.08
2013-8-2,87,68,53,58,54,48,99,66,32,30.00,29.84,15,5,25,0.04
2013-8-3,86,68,56,60,54,46,99,66,29,30.00,29.89,16,5,24,0.07
2013-8-4,89,70,55,59,50,43,94,53,23,30.01,29.88,18,6,27,0.02
2013-8-5,87,70,54,58,52,42,99,60,25,30.01,29.83,15,6,26,0.00
2013-8-6,81,66,57,58,52,46,99,63,32,29.93,29.84,14,6,24,0.09
2013-8-7,76,60,54,58,55,50,99,86,44,29.91,29.85,17,4,23,0.30
2013-8-8,68,58,52,58,52,45,99,83,54,29.92,29.84,10,4,17,0.04
2013-8-9,83,64,48,51,46,32,89,56,17,29.97,29.89,15,5,31,0.00
2013-8-10,80,61,50,52,48,44,93,67,33,30.08,29.94,24,6,38,0.25
2013-8-11,82,64,49,51,46,40,92,56,26,30.04,29.90,11,4,18,0.00
2013-8-12,83,67,53,50,46,38,77,50,23,29.98,29.88,11,4,18,0.00
2013-8-13,86,69,52,52,41,26,73,42,13,30.01,29.89,13,5,24,0.00
2013-8-14,85,70,52,44,37,28,63,33,15,29.99,29.88,14,5,25,0.00
2013-8-15,89,72,52,44,35,27,52,29,13,29.99,29.88,10,5,21,0.00
2013-8-16,90,74,58,40,34,29,42,25,12,30.00,29.89,14,5,21,0.00
2013-8-17,90,71,54,47,40,31,58,35,17,30.00,29.89,18,5,42,0.00
2013-8-18,88,70,54,50,47,40,72,46,23,30.00,29.88,12,5,24,0.00
2013-8-19,89,72,58,51,47,41,66,44,22,29.98,29.87,12,4,21,0.00
2013-8-20,91,71,56,51,48,44,70,45,22,29.94,29.84,16,6,25,0.00
2013-8-21,90,71,56,58,47,40,94,47,21,30.02,29.86,20,7,30,0.07
2013-8-22,86,72,58,56,49,41,85,49,24,29.99,29.85,12,5,21,0.00
2013-8-23,86,72,54,54,44,24,85,43,12,29.94,29.79,18,6,30,0.01
2013-8-24,78,65,57,57,52,46,96,66,34,29.98,29.88,17,5,27,0.07
2013-8-25,76,61,56,62,58,56,99,92,55,30.04,29.96,11,4,17,0.72
2013-8-26,85,69,57,60,57,49,99,69,33,30.04,29.92,8,4,28,0.02
2013-8-27,90,71,58,57,53,39,86,56,18,29.98,29.85,9,4,15,0.00
2013-8-28,88,72,57,56,51,35,79,51,16,29.96,29.86,11,4,20,0.00
2013-8-29,91,71,58,56,52,46,77,54,23,30.02,29.92,12,4,17,0.00
2013-8-30,92,73,60,56,50,44,72,48,21,30.01,29.88,16,4,34,0.07
2013-8-31,89,72,56,57,53,48,88,55,26,29.97,29.82,18,5,23,0.04